Location: Kellogg
(38.0159°N, 90.0546°W)
Time: 14:22:11
(UTC+00:00)

ARIANE 6 FM1 Upper Stage - Pass Details

Date: 28 January 2026
Orbit: 522 x 609 km, 62.0° (Epoch: 8 February)

Event Time Altitude Azimuth Distance (km) Brightness Sun altitude
Rises 23:54:17 0° 243° (WSW) 2,717 8.3 -7.6°
Reaches altitude 10° 23:56:50 10° 257° (WSW) 1,811 7.0 -8.0°
Maximum altitude 00:00:12 25° 313° (NW) 1,123 4.6 -8.7°
Drops below altitude 10° 00:03:32 10° 10° (N) 1,784 5.0 -9.3°
Enters shadow 00:05:42 - 23° (NNE) 2,546 5.6 -9.7°
